RH
56 53 48 46 48 58 65 68 73 70 67 68 66 64 61 60 62 56 61 75 67 69 73 61 65 68 69 71 72 70 75 61 66 81 71 72 67 61 62 56 54 54 51
54 51 50 46 48 58 65 69 72 70 70 64 67 63 63 58 57 57 66 64 71 67 68 72 72 69 62 72 76 82 77 78 64 72 63 80 66 59 54 54 53 51 51
52 46 46 49 52 59 67 86 78 72 72 71 68 69 71 68 62 77 61 64 67 74 77 82 79 80 71 66 72 67 75 63 59 73 86 67 81 68 58 64 57 57 56
57 53 52 57 52 56 62 80 85 82 74 73 75 77 67 65 64 64 63 62 70 68 68 71 74 90 79 69 87 70 70 75 60 59 60 71 68 58 68 57 50 52 54
56 54 58 63 63 60 63 75 83 83 83 78 83 72 76 68 64 62 74 74 71 67 64 73 74 77 89 75 74 72 88 88 87 72 58 68 62 68 62 53 52 51 52
50 65 68 68 67 64 59 70 80 82 80 74 77 80 80 77 73 74 69 62 59 58 66 68 77 78 77 79 76 87 80 82 77 92 90 65 57 52 56 56 55 52 48
60 69 71 72 75 76 69 65 76 77 78 73 75 74 79 81 80 78 68 77 68 67 69 75 78 73 80 83 81 85 85 83 77 87 82 91 68 84 61 57 55 53 46
64 67 70 75 78 78 73 73 78 80 78 79 88 88 85 82 84 86 79 85 80 79 80 74 77 78 76 75 86 93 89 74 73 78 75 70 62 87 84 85 74 58 51
67 69 72 77 75 75 78 80 84 81 78 77 83 80 81 82 86 90 91 91 88 87 86 86 83 84 86 84 80 76 76 87 90 75 74 76 58 61 60 62 93 75 63
64 65 60 61 63 62 64 66 69 74 72 68 69 71 78 80 81 80 84 82 82 86 86 84 84 82 82 86 88 79 72 86 70 91 82 88 58 79 93 94 95 95 70
60 59 57 56 52 52 52 55 57 62 62 65 71 71 69 70 69 68 73 77 77 82 84 85 84 85 85 82 88 89 85 85 81 84 83 83 82 84 92 94 78 78 81
57 54 56 54 52 55 53 54 57 53 58 64 67 70 73 72 67 71 70 73 76 74 78 81 82 81 80 82 84 86 83 83 80 81 84 78 84 82 89 94 89 89 85
60 56 56 58 59 61 62 57 56 62 59 64 61 66 66 64 67 68 68 70 72 73 69 73 78 79 79 80 80 83 83 83 79 78 81 80 86 93 93 92 86 81 78
60 57 57 58 65 68 68 68 66 64 64 62 65 70 66 66 65 70 72 73 74 74 72 70 72 71 72 71 74 79 83 82 81 83 75 75 81 80 82 80 92 88 89
57 58 56 62 68 71 72 71 66 66 64 67 66 70 71 70 71 74 76 76 75 72 74 74 70 68 62 51 70 72 77 82 81 78 81 81 75 94 87 71 75 83 88
56 54 60 65 66 68 72 69 67 67 69 70 69 72 75 75 74 75 76 77 76 75 77 74 73 73 56 75 82 82 77 79 81 83 81 78 87 90 95 96 98 89 83
56 56 60 63 66 69 69 66 67 69 72 74 74 75 77 76 76 75 78 78 78 78 82 82 79 78 75 82 88 85 69 75 70 77 79 77 73 84 80 90 97 97 99
57 61 62 69 69 65 66 69 68 74 75 76 77 77 78 76 74 75 76 77 75 78 81 86 88 88 80 89 92 90 74 76 75 68 70 74 69 70 80 86 86 77 73
55 59 58 61 69 69 70 71 73 76 76 77 79 79 77 75 76 78 80 77 79 79 78 80 84 87 83 92 94 94 72 65 73 70 67 66 68 84 100 84 75 67 64
55 59 57 57 59 67 66 70 73 74 76 79 77 75 78 79 82 83 85 83 82 80 75 81 82 86 83 93 97 96 75 67 66 79 79 87 84 100 99 85 70 69 61
57 58 59 59 63 65 63 66 70 72 72 71 71 75 77 80 81 84 81 84 82 84 85 85 85 88 93 91 97 98 83 78 69 64 83 83 99 100 98 99 71 71 81
60 56 60 63 65 66 64 68 71 70 70 70 74 80 80 76 75 84 82 82 82 83 82 92 84 80 92 93 91 97 95 97 95 94 88 85 99 99 99 91 96 97 95
58 54 56 66 67 68 66 67 71 71 69 71 76 76 77 76 77 79 84 80 81 71 75 88 93 86 81 79 90 94 97 93 78 95 96 98 99 100 88 99 98 98 87
61 58 61 63 67 67 68 67 69 71 71 72 72 71 73 76 74 65 76 86 81 68 72 81 88 86 71 69 83 90 88 88 82 86 80 88 92 97 87 73 74 76 84
62 62 62 62 61 66 68 67 67 69 64 67 65 64 61 68 66 67 70 88 92 73 65 65 69 86 75 71 91 97 85 90 92 95 80 79 82 89 85 82 85 88 91
65 67 67 66 64 66 66 68 67 69 66 60 55 54 52 52 58 60 62 96 92 92 91 90 82 68 85 91 94 97 96 96 97 85 93 95 94 94 94 93 90 85 78
Wind_Speed
2 5 7 10 11 10 10 10 8 8 7 5 5 6 6 4 5 6 6 3 4 5 6 5 5 6 6 5 6 6 5 4 3 5 4 4 7 8 7 6 7 8 9
3 4 5 8 10 10 9 8 9 8 9 7 4 3 3 3 4 4 4 5 5 6 6 7 5 6 5 7 7 7 3 3 3 4 4 3 3 5 7 7 7 9 6
5 5 6 6 9 10 11 11 12 11 11 10 5 4 3 3 4 4 4 3 3 4 6 5 6 5 5 6 7 6 6 5 4 6 3 3 1 3 3 5 6 6 6
3 3 7 7 7 9 11 12 11 11 9 9 7 9 6 6 3 3 3 4 5 4 5 7 8 5 5 8 7 5 8 6 8 4 6 6 4 3 2 2 3 5 6
5 7 5 6 6 9 10 10 7 8 7 7 9 6 6 5 5 4 6 5 6 6 6 6 7 9 6 9 11 11 9 7 6 7 5 5 5 5 5 7 2 4 4
6 7 5 5 7 4 7 7 6 7 7 8 6 1 5 6 4 5 6 6 6 6 6 7 8 9 10 10 11 11 10 8 8 6 6 7 6 6 6 6 7 7 5
11 10 9 8 7 4 2 4 2 3 4 4 3 7 5 7 6 7 6 9 8 6 6 6 7 6 9 9 10 10 10 10 10 9 7 6 8 6 7 7 8 8 6
9 10 13 12 12 10 7 5 3 1 4 5 4 1 3 3 2 4 4 5 7 7 10 9 7 9 9 9 9 7 8 10 10 12 10 7 9 7 7 6 7 9 7
10 12 12 10 14 13 11 8 9 10 10 10 10 9 7 7 6 5 3 3 5 6 8 5 7 9 10 10 11 8 10 10 10 10 11 10 9 8 8 8 5 8 9
10 11 11 11 13 12 9 9 11 10 9 9 9 8 9 9 8 7 9 10 9 9 11 9 8 8 10 9 10 10 11 11 10 7 10 9 10 9 6 7 7 6 9
9 10 9 10 9 9 8 8 9 9 8 9 9 9 9 9 7 6 7 8 9 9 9 10 10 9 9 9 8 9 12 13 11 12 11 11 11 8 7 6 7 7 7
10 9 8 8 7 7 7 7 7 8 8 8 7 7 7 7 7 7 7 8 9 9 8 8 9 9 9 8 8 9 9 12 12 12 9 11 7 10 9 7 10 9 9
11 9 8 6 6 7 6 6 5 6 6 6 6 5 6 6 6 7 8 8 9 9 9 9 9 10 10 10 9 8 8 9 10 10 10 10 8 6 7 6 8 8 8
12 10 8 6 6 5 4 3 4 4 5 5 5 5 6 7 7 7 7 8 8 9 9 9 10 10 10 11 10 10 9 9 8 8 10 9 9 9 9 7 8 9 8
14 12 11 8 7 6 5 3 1 3 5 4 5 6 7 7 8 9 9 9 8 8 9 10 10 10 9 8 8 10 10 10 10 10 8 8 8 8 8 7 8 8 7
16 13 12 10 8 6 5 4 1 2 2 3 4 5 6 7 7 7 8 8 8 9 10 10 10 11 8 10 13 12 9 10 10 9 9 8 9 10 12 11 12 11 10
15 12 11 9 7 6 4 3 1 1 1 2 4 5 5 6 7 8 8 8 9 10 10 10 11 11 12 10 12 15 10 9 11 10 9 8 6 7 9 10 9 11 13
14 12 9 8 7 6 4 3 1 0 2 4 5 5 6 6 8 8 9 8 8 9 8 9 10 11 10 11 12 16 12 9 11 12 12 11 11 10 9 7 5 7 7
14 12 10 9 7 5 4 3 2 1 2 3 5 4 5 6 6 7 8 8 8 8 7 8 9 9 9 11 13 12 10 10 12 11 12 12 12 11 4 8 5 5 6
14 13 12 10 7 6 4 2 2 2 2 5 6 5 5 5 6 7 7 7 7 7 7 8 8 10 9 8 12 12 8 10 9 9 10 10 12 3 5 5 5 6 5
15 13 11 8 6 5 3 1 2 4 4 5 6 6 6 6 6 7 6 7 8 8 8 8 8 8 10 9 12 13 7 7 9 7 7 3 4 2 3 3 5 5 6
14 11 9 7 6 4 2 0 1 2 4 4 4 4 5 4 4 6 6 7 8 8 8 8 8 7 8 9 13 14 12 12 5 5 5 4 8 6 3 4 6 6 6
11 9 7 6 5 4 3 2 1 3 3 4 4 5 5 5 4 6 6 5 6 6 7 7 7 8 8 9 16 16 15 11 7 4 6 9 8 2 5 4 3 3 3
10 7 6 6 5 5 5 3 3 3 3 4 5 5 5 6 5 5 4 3 4 5 6 7 8 8 8 9 10 10 9 11 7 7 4 5 2 2 4 5 6 6 6
8 7 6 5 5 5 5 3 2 3 3 4 4 5 4 6 6 4 4 2 2 5 7 7 7 7 8 11 13 9 8 7 6 8 3 6 7 7 8 7 8 7 7
8 7 6 6 5 5 5 4 2 2 3 3 2 3 4 4 4 5 4 7 6 3 3 5 5 6 5 12 13 12 12 13 11 5 6 7 7 7 7 7 7 6 8
Wind_Direction
264 208 212 215 212 199 199 209 215 229 213 212 220 224 238 243 251 253 270 256 243 231 219 238 230 237 254 278 269 269 279 265 258 279 267 247 241 239 238 242 250 251 248
201 154 149 189 202 199 207 218 228 228 224 222 221 236 233 230 265 279 278 265 242 239 228 235 232 242 256 259 254 252 261 267 263 291 310 293 197 226 235 240 244 248 252
201 172 136 142 178 183 181 199 203 211 216 217 206 201 219 245 247 245 277 330 305 234 245 244 241 227 237 259 256 259 265 279 270 248 269 278 306 325 187 225 229 236 246
108 136 137 117 159 177 191 206 191 198 196 202 210 217 228 250 244 261 278 302 311 292 256 247 241 213 228 251 253 246 256 250 275 272 237 254 290 294 288 205 219 229 240
111 106 112 121 126 171 189 205 193 164 159 193 215 229 249 247 259 277 294 305 295 277 266 246 245 241 217 237 244 241 234 234 242 253 250 238 245 244 266 287 226 256 236
156 126 114 123 107 119 210 212 195 157 179 195 226 2 334 314 314 302 304 299 286 278 274 257 245 239 244 239 239 239 247 241 242 242 248 254 259 255 250 260 274 288 281
170 131 126 98 84 96 209 270 304 210 211 253 83 64 348 308 284 290 301 308 289 266 258 261 256 252 256 248 254 244 237 233 233 233 239 233 250 260 261 265 274 278 295
141 129 105 101 95 86 83 58 39 44 82 124 128 125 269 310 289 290 320 317 302 300 287 278 269 276 271 275 260 252 254 247 235 235 240 245 244 239 237 247 277 275 264
152 119 110 102 101 93 83 82 83 74 64 74 93 95 94 76 46 24 331 308 337 338 335 298 272 281 281 273 272 258 259 256 249 240 236 237 245 247 245 250 232 259 276
128 110 106 106 91 93 92 85 77 69 57 53 45 45 44 44 39 21 13 360 354 345 332 331 327 314 311 297 263 259 257 256 252 245 239 233 248 250 239 241 235 222 257
133 119 115 96 93 89 82 70 63 57 50 44 37 31 26 30 27 15 2 352 344 343 332 326 321 313 312 317 297 261 259 259 261 263 249 247 235 238 242 240 244 232 234
143 131 116 113 101 85 75 61 50 48 37 31 35 38 27 16 15 8 357 345 339 334 334 330 317 314 316 316 299 288 281 265 264 270 268 261 256 245 245 232 245 246 241
151 146 138 132 129 119 104 85 60 51 28 14 8 17 14 4 356 347 341 338 335 329 325 326 326 323 323 316 309 297 289 286 281 280 282 275 274 250 255 231 249 254 256
163 160 159 160 145 122 109 107 81 34 21 357 1 6 0 349 344 338 332 327 324 318 318 317 314 314 315 313 311 324 309 289 273 283 281 276 275 261 268 242 241 247 243
174 174 170 168 157 148 143 158 70 19 7 359 1 357 348 347 344 343 337 329 326 319 310 308 308 307 300 289 334 319 308 298 299 284 274 281 287 293 276 265 255 264 255
182 179 170 171 164 156 175 180 183 33 26 9 6 347 334 333 334 335 335 330 329 327 320 318 314 309 300 335 314 309 304 300 292 284 280 275 259 250 241 235 242 262 265
183 177 174 169 149 168 176 205 226 117 34 345 336 337 335 331 339 339 337 336 332 327 326 322 320 311 306 311 305 303 295 295 289 279 272 269 260 254 259 246 228 233 234
168 165 157 149 152 157 174 182 201 10 346 2 347 342 337 339 344 346 341 331 328 323 323 318 315 309 310 318 303 304 289 277 275 276 274 273 272 260 246 252 257 275 275
160 152 150 149 153 162 163 151 109 356 331 345 340 334 337 348 345 338 336 335 332 325 319 297 301 301 311 304 303 303 290 272 269 273 271 263 263 264 194 243 253 276 275
143 145 144 149 161 161 156 143 158 251 316 338 332 341 348 345 337 331 317 312 316 308 321 318 310 298 311 327 355 345 289 274 277 280 271 245 256 56 191 253 255 267 286
139 139 145 156 149 135 89 7 347 359 347 333 332 338 348 337 331 319 323 327 335 338 345 344 353 14 1 8 360 355 332 308 294 292 299 24 42 155 213 265 275 303 339
138 144 149 152 136 134 169 285 323 349 332 311 317 332 346 345 332 322 339 6 9 9 9 0 5 8 357 353 352 344 346 328 300 313 348 34 360 319 304 286 353 302 283
145 153 154 143 158 179 207 225 242 273 288 308 355 359 355 355 351 353 8 11 9 0 359 1 357 356 354 350 349 339 342 348 330 357 331 311 304 302 202 64 6 281 323
153 152 155 175 181 192 195 228 266 271 302 328 352 360 358 350 359 3 25 33 20 1 7 1 353 346 349 1 349 338 343 357 347 344 336 335 324 70 19 3 22 19 13
154 167 179 185 186 185 201 216 300 283 313 335 342 341 350 2 349 0 3 132 74 24 9 5 345 346 349 353 326 319 343 338 325 316 13 51 44 42 35 29 24 21 16
170 180 189 194 187 195 206 212 231 294 319 310 334 12 347 2 0 356 1 125 132 85 53 28 2 351 7 333 334 336 349 357 360 54 37 36 35 35 25 17 8 5 359